Weather History for Austin, MN

Change the Weather History Date:

Saturday, March 30, 2013

  Actual Average Record
Temperature  
Mean Temperature 42 °F -  
Max Temperature 50 °F 45 °F 69 °F (1999)
Min Temperature 33 °F 28 °F 23 °F (2011)
Degree Days  
Heating Degree Days 24    
Moisture  
Dew Point 36 °F    
Average Humidity 80    
Maximum Humidity 93    
Minimum Humidity 70    
Precipitation  
Precipitation 0.06 in - - ()
Sea Level Pressure  
Sea Level Pressure 29.93 in    
Wind  
Wind Speed 9 mph (SW)    
Max Wind Speed 16 mph    
Max Gust Speed 21 mph    
Visibility 8 miles    
Events Fog , Rain , Thunderstorm    
Averages and records for this station are not official NWS values.
T = Trace of Precipitation, MM = Missing Value Source: NWS Daily Summary

Daily Weather History Graph

Daily Weather History Graph

Search for Another Location

Airport:

Trip Planner

Search our weather history database for the weather conditions in past years. The results will help you decide how hot, cold, wet, or windy it might be!

Date:

Astronomy

Mar. 30, 2013 Rise Set
Actual Time 6:56 AM CDT 7:36 PM CDT
Civil Twilight 6:27 AM CDT 8:05 PM CDT
Nautical Twilight 5:53 AM CDT 8:39 PM CDT
Astronomical Twilight 5:17 AM CDT 9:15 PM CDT
Moon 11:51 PM CDT (3/30) 8:44 AM CDT (3/30)
Length of Visible Light 13h 37m
Length of Day
12h 40m
Waning Gibbous, 86% of the Moon is Illuminated
Mar 30
Waning Gibbous
Apr 2
Last Quarter
Apr 10
New
Apr 18
First Quarter
Apr 25
Full

Hourly Weather History & Observations

Time (CDT) Temp. Windchill Dew Point Humidity Pressure Visibility Wind Dir Wind Speed Gust Speed Precip Events Conditions
12:15 AM 41.0 °F 35.2 °F 32.0 °F 70% 30.09 in 10.0 mi SSE 9.2 mph - N/A   Mostly Cloudy
12:35 AM 41.0 °F 35.8 °F 32.0 °F 70% 30.09 in 10.0 mi SSE 8.1 mph - N/A   Clear
12:56 AM 41.0 °F 35.8 °F 32.0 °F 70% 30.08 in 10.0 mi SSE 8.1 mph - N/A   Clear
1:15 AM 39.2 °F 34.2 °F 32.0 °F 75% 30.07 in 10.0 mi SSE 6.9 mph - N/A Thunderstorm Mostly Cloudy
1:35 AM 39.2 °F 34.2 °F 32.0 °F 75% 30.06 in 10.0 mi SSE 6.9 mph - N/A   Mostly Cloudy
1:55 AM 39.2 °F 35.0 °F 30.2 °F 70% 30.06 in 10.0 mi SSE 5.8 mph - N/A   Clear
2:15 AM 39.2 °F 34.2 °F 30.2 °F 70% 30.05 in 10.0 mi SSE 6.9 mph - N/A   Clear
2:36 AM 39.2 °F 33.6 °F 30.2 °F 70% 30.04 in 10.0 mi SSE 8.1 mph - N/A   Clear
2:55 AM 39.2 °F 33.0 °F 30.2 °F 70% 30.04 in 10.0 mi South 9.2 mph - N/A   Clear
3:15 AM 39.2 °F 32.5 °F 30.2 °F 70% 30.04 in 10.0 mi SSE 10.4 mph 16.1 mph N/A   Mostly Cloudy
3:36 AM 39.2 °F 32.5 °F 30.2 °F 70% 30.03 in 10.0 mi South 10.4 mph - N/A   Overcast
3:55 AM 39.2 °F 33.6 °F 30.2 °F 70% 30.03 in 10.0 mi South 8.1 mph - N/A   Overcast
4:15 AM 39.2 °F 33.0 °F 30.2 °F 70% 30.01 in 10.0 mi South 9.2 mph - N/A   Overcast
4:36 AM 37.4 °F 32.1 °F 30.2 °F 75% 30.01 in 10.0 mi South 6.9 mph - N/A   Mostly Cloudy
4:55 AM 37.4 °F 32.8 °F 30.2 °F 75% 30.00 in 10.0 mi South 5.8 mph - N/A   Scattered Clouds
5:15 AM 37.4 °F 31.4 °F 30.2 °F 75% 29.99 in 10.0 mi South 8.1 mph - N/A   Scattered Clouds
5:36 AM 37.4 °F 30.8 °F 30.2 °F 75% 29.99 in 10.0 mi South 9.2 mph - N/A   Scattered Clouds
5:55 AM 37.4 °F 31.4 °F 30.2 °F 75% 29.98 in 10.0 mi South 8.1 mph - N/A   Clear
6:15 AM 37.4 °F 30.3 °F 30.2 °F 75% 29.98 in 10.0 mi South 10.4 mph - N/A   Scattered Clouds
6:36 AM 37.4 °F 30.8 °F 32.0 °F 81% 29.97 in 10.0 mi South 9.2 mph - N/A   Scattered Clouds
6:55 AM 37.4 °F 30.8 °F 32.0 °F 81% 29.96 in 10.0 mi South 9.2 mph - N/A   Clear
7:15 AM 37.4 °F 28.5 °F 32.0 °F 81% 29.96 in 7.0 mi South 15.0 mph 19.6 mph N/A   Clear
7:35 AM 37.4 °F 30.3 °F 32.0 °F 81% 29.95 in 7.0 mi South 10.4 mph - N/A   Scattered Clouds
7:55 AM 37.4 °F 29.3 °F 32.0 °F 81% 29.94 in 10.0 mi South 12.7 mph - N/A   Mostly Cloudy
8:15 AM 39.2 °F 30.8 °F 33.8 °F 81% 29.94 in 7.0 mi South 15.0 mph - N/A   Scattered Clouds
8:35 AM 39.2 °F 31.2 °F 33.8 °F 81% 29.93 in 10.0 mi South 13.8 mph - N/A   Clear
8:56 AM 42.8 °F 35.1 °F 35.6 °F 76% 29.93 in 10.0 mi South 16.1 mph 20.7 mph N/A   Clear
9:15 AM 42.8 °F 37.0 °F 35.6 °F 76% 29.92 in 10.0 mi South 10.4 mph - N/A   Clear
9:35 AM 44.6 °F 38.1 °F 35.6 °F 71% 29.92 in 10.0 mi SSW 13.8 mph 17.3 mph N/A   Clear
9:55 AM 44.6 °F 38.4 °F 37.4 °F 76% 29.92 in 10.0 mi SSW 12.7 mph 20.7 mph N/A   Clear
10:15 AM 46.4 °F 40.1 °F 37.4 °F 71% 29.91 in 10.0 mi South 15.0 mph 19.6 mph N/A   Clear
10:36 AM 46.4 °F 41.1 °F 37.4 °F 71% 29.91 in 10.0 mi SSW 11.5 mph - N/A   Scattered Clouds
10:55 AM 44.6 °F 41.4 °F 37.4 °F 76% 29.93 in 10.0 mi West 5.8 mph - N/A   Overcast
11:15 AM 44.6 °F 42.2 °F 37.4 °F 76% 29.92 in 10.0 mi SSW 4.6 mph - N/A Rain Light Rain
11:36 AM 42.8 °F 38.6 °F 37.4 °F 81% 29.91 in 7.0 mi South 6.9 mph - N/A Rain Light Rain
11:55 AM 42.8 °F 38.6 °F 39.2 °F 87% 29.90 in 7.0 mi South 6.9 mph - 0.01 in Rain Light Rain
12:15 PM 42.8 °F 39.3 °F 39.2 °F 87% 29.90 in 5.0 mi South 5.8 mph - 0.01 in Rain Light Rain
12:36 PM 42.8 °F 38.6 °F 39.2 °F 87% 29.89 in 4.0 mi South 6.9 mph - 0.03 in Rain Light Rain
12:55 PM 44.6 °F 42.2 °F 41.0 °F 87% 29.89 in 2.0 mi SW 4.6 mph - 0.03 in   Drizzle
1:15 PM 44.6 °F - 41.0 °F 87% 29.89 in 1.5 mi Calm Calm - 0.01 in Rain Light Rain
1:36 PM 44.6 °F - 41.0 °F 87% 29.89 in 1.2 mi Calm Calm - 0.02 in   Light Drizzle
1:55 PM 44.6 °F - 42.8 °F 93% 29.88 in 0.5 mi Calm Calm - 0.02 in Fog Fog
2:15 PM 46.4 °F 44.3 °F 44.6 °F 93% 29.87 in 1.5 mi WSW 4.6 mph - N/A   Overcast
2:36 PM 46.4 °F 41.1 °F 44.6 °F 93% 29.87 in 7.0 mi WNW 11.5 mph - N/A   Mostly Cloudy
2:55 PM 46.4 °F 41.1 °F 44.6 °F 93% 29.86 in 10.0 mi WNW 11.5 mph - N/A   Mostly Cloudy
3:15 PM 48.2 °F - 42.8 °F 82% 29.86 in 7.0 mi WNW 11.5 mph - N/A   Mostly Cloudy
3:35 PM 48.2 °F - 42.8 °F 82% 29.86 in 7.0 mi WNW 6.9 mph - N/A   Mostly Cloudy
3:56 PM 48.2 °F - 42.8 °F 82% 29.86 in 7.0 mi WNW 10.4 mph - N/A   Overcast
4:15 PM 48.2 °F - 42.8 °F 82% 29.86 in 7.0 mi NW 6.9 mph - N/A   Overcast
4:35 PM 48.2 °F - 42.8 °F 82% 29.86 in 7.0 mi NW 11.5 mph 16.1 mph N/A   Mostly Cloudy
4:56 PM 50.0 °F - 42.8 °F 76% 29.86 in 7.0 mi NW 10.4 mph - N/A   Scattered Clouds
5:15 PM 48.2 °F - 42.8 °F 82% 29.86 in 7.0 mi NW 10.4 mph - N/A   Scattered Clouds
5:35 PM 48.2 °F - 42.8 °F 82% 29.86 in 7.0 mi NW 9.2 mph - N/A   Clear
5:56 PM 48.2 °F - 42.8 °F 82% 29.86 in 10.0 mi NW 9.2 mph - N/A   Clear
6:15 PM 48.2 °F - 41.0 °F 76% 29.86 in 10.0 mi WNW 10.4 mph - N/A   Clear
6:35 PM 48.2 °F - 41.0 °F 76% 29.86 in 10.0 mi WNW 10.4 mph - N/A   Clear
6:56 PM 46.4 °F 42.9 °F 39.2 °F 76% 29.86 in 10.0 mi NW 6.9 mph - N/A   Clear
7:15 PM 46.4 °F 42.4 °F 39.2 °F 76% 29.86 in 10.0 mi WNW 8.1 mph - N/A   Clear
7:35 PM 44.6 °F 41.4 °F 39.2 °F 81% 29.86 in 10.0 mi WNW 5.8 mph - N/A   Clear
7:56 PM 44.6 °F 40.7 °F 39.2 °F 81% 29.86 in 10.0 mi WNW 6.9 mph - N/A   Clear
8:15 PM 42.8 °F 38.0 °F 37.4 °F 81% 29.86 in 10.0 mi WNW 8.1 mph - N/A   Clear
8:35 PM 42.8 °F 37.0 °F 37.4 °F 81% 29.87 in 10.0 mi WNW 10.4 mph 17.3 mph N/A   Clear
8:56 PM 42.8 °F 38.0 °F 37.4 °F 81% 29.87 in 7.0 mi WNW 8.1 mph - N/A   Clear
9:15 PM 41.0 °F 35.8 °F 37.4 °F 87% 29.87 in 7.0 mi WNW 8.1 mph - N/A   Clear
9:35 PM 39.2 °F 33.6 °F 35.6 °F 87% 29.87 in 7.0 mi WNW 8.1 mph - N/A   Clear
9:56 PM 39.2 °F 33.6 °F 35.6 °F 87% 29.87 in 5.0 mi NW 8.1 mph - N/A   Clear
10:15 PM 37.4 °F 32.8 °F 35.6 °F 93% 29.87 in 5.0 mi NW 5.8 mph - N/A   Clear
10:36 PM 37.4 °F 31.4 °F 33.8 °F 87% 29.88 in 4.0 mi NW 8.1 mph - N/A   Scattered Clouds
10:55 PM 35.6 °F 28.6 °F 33.8 °F 93% 29.88 in 0.5 mi NW 9.2 mph - N/A Fog Fog
11:15 PM 35.6 °F 27.5 °F 32.0 °F 87% 29.88 in 0.5 mi NW 11.5 mph - N/A Fog Fog
11:36 PM 33.8 °F 27.0 °F 32.0 °F 93% 29.87 in 0.2 mi NW 8.1 mph - N/A Fog Fog
11:55 PM 33.8 °F 28.6 °F 32.0 °F 93% 29.87 in 0.2 mi NW 5.8 mph - N/A Fog Fog